STARLINK-3089, 49166

Orbit data source: Space-Track

STARLINK-3089, 49166 is a payload satellite owned by SpaceX/Seattle (US) in LEO that was launched on Tue, 14 Sep 2021 UTC via an FALCON 9 launch vehicle from the Air Force Western Test Range (AFWTR). Payload-class satellites include a variety of spacecraft equipped with specific instruments for various scientific and technological missions. These include communications satellites like Starlink; space stations such as the ISS; scientific satellites like the Hubble; Earth observation satellites from companies like Planet Labs, Umbra, and HawkEye 360; GPS; miniature CubeSats for education and research; and military/defense satellites.

Loading next visibility...
Identifier
49166, 2021-082AN
Orbit
LEO
Country
Flag of USUS
Related business
Manufacturer
SpaceX/Seattle
Mission
Operational Commercial Communications
Bus & Motor
STARLINK, Unknown motor
Mass
297 kg wet, ~275 kg dry
Launch date (UTC)
2021-09-14 (5 years ago)
Launch vehicle
FALCON 9
Launch site
Air Force Western Test Range (AFWTR)
Object type
Payload
Rocket body
Debris
Shape & HBR
Box + 1 Pan, 10.1 m
Radar Cross Section
13.562 m², Large (>1 m²)

Expand to show TLE details & history
Last TLE update: 17 hours ago

TLE from 17 hours ago
0 STARLINK-3089
1 49166U 21082AN  26125.41971595  .00000024  00000-0  99552-5 0  9997
2 49166  69.9990 132.3914 0003619 269.3343  90.7401 14.97521490256143
Epoch: 2026-05-05T10:04Z
TLE epoch observation values (Epoch: 2026-05-05T10:04:23.458Z)
Latitude
Longitude
117.99883°
Altitude
577.014 km
Speed
7.572 km/s
True Right ascension
08h 49m 33s
True Declination
0° 00' 00"
Sunlit
Object was in daylight at epoch
Visualization orbit readout
Latitude
Unknown
Longitude
Unknown
Altitude
Unknown
Speed
Unknown
Apparent Right ascension
Unknown
Apparent Declination
Unknown
Sunlit
N/A
Visualization observer readout
Local Sidereal Time
10:38:21
Azimuth
Unknown
Elevation
Unknown
Doppler factor
Unknown
Orbital elements
Apogee altitude
575.022 km
Perigee altitude
569.991 km
Semi-major axis
6,950.643 km
Eccentricity
0.00036
Inclination
69.999°
RAAN
132.3914°
Arg. of periapsis
269.3343°
True anomaly
90.78157°
Mean anomaly
90.7401°
Eccentric anomaly
90.76083°
Mean motion
3.74546 °/min
Orbital period
96.12 mins
BSTAR
0.0000099552
Loading maneuver chart data...
Computing Atmospheric mass density...

Documentation

Showing up to 5 results
|